Wind_Speed
22 19 16 13 13 16 18 16 13 9 11 10 8 7 6 7 7 6 7 9 12 10 16 18 20 18 20 18 10 9 6 9 7 7 6 12 13 11 11 15 18 19 15 13 13
18 14 9 8 8 11 9 8 11 10 9 10 10 9 8 9 8 7 5 10 12 12 16 17 19 21 22 20 14 8 5 7 9 7 5 5 11 8 6 11 17 18 14 11 12
14 11 11 11 11 11 7 7 9 7 6 11 13 12 11 10 9 8 7 10 12 13 14 16 17 21 23 22 18 11 10 13 11 10 8 5 7 10 12 6 12 18 13 11 11
15 14 14 14 14 11 9 8 6 6 4 4 7 10 11 11 10 11 11 10 12 14 16 16 17 19 25 24 25 21 18 12 10 17 19 15 10 14 11 13 9 17 16 12 10
18 17 15 15 14 11 9 10 9 7 6 6 5 6 9 11 12 12 11 11 12 15 16 18 21 25 28 31 29 25 23 16 12 17 25 20 13 15 16 21 14 17 14 11 13
19 19 16 13 12 10 9 12 11 9 7 5 5 6 7 7 10 12 13 13 14 15 18 22 27 24 26 27 28 31 24 19 14 15 22 17 15 17 14 17 19 11 11 19 18
17 15 15 13 10 9 11 13 13 11 8 6 3 3 4 7 8 10 13 14 16 16 18 21 22 22 22 25 29 31 29 24 18 16 15 18 22 18 14 15 14 9 12 11 15
13 13 14 14 13 10 12 15 17 15 12 11 10 8 6 7 5 8 12 14 16 16 17 17 19 19 21 23 26 30 35 31 26 24 25 28 26 22 16 18 13 15 10 8 6
11 11 11 11 11 11 12 12 15 19 21 18 16 15 12 11 10 9 8 12 16 17 17 16 16 20 20 24 25 31 32 35 30 24 27 27 25 26 20 16 13 18 12 16 9
11 10 10 9 9 7 6 8 14 16 17 19 23 21 21 17 16 14 11 12 14 16 18 17 18 19 23 23 26 29 32 30 29 31 33 32 30 27 22 20 15 18 13 14 16
11 11 11 10 10 8 7 4 4 8 12 14 15 19 21 21 19 17 17 15 15 16 18 18 19 18 20 22 24 30 27 27 27 27 32 29 30 31 21 18 15 20 17 20 15
13 13 13 12 10 11 10 8 7 8 8 9 12 15 12 14 19 21 19 16 17 20 18 15 18 21 20 20 24 27 28 26 30 30 34 34 35 32 25 22 18 26 24 23 21
15 15 16 12 12 13 12 11 14 12 11 8 7 9 11 14 17 18 18 18 17 19 19 17 22 22 23 23 25 28 28 31 36 38 39 39 38 36 27 28 27 27 26 27 25
17 17 18 17 16 16 17 14 11 10 11 11 10 11 12 11 15 17 19 19 19 19 18 20 23 23 24 25 28 27 28 32 36 39 43 40 36 33 34 27 29 32 26 20 24
18 18 16 17 16 15 15 11 11 11 12 13 14 14 10 9 10 13 17 19 19 19 17 20 22 24 23 25 29 28 31 33 36 40 42 41 40 34 34 34 33 26 29 16 16
19 19 22 19 20 16 15 16 16 16 17 15 13 17 15 12 12 12 12 15 17 18 18 18 20 19 18 24 28 28 30 32 36 40 43 40 39 38 41 36 35 34 29 27 23
21 21 24 20 18 17 15 16 17 18 18 16 12 12 22 20 18 15 13 13 13 15 17 20 20 20 19 20 24 30 29 29 34 37 39 37 40 40 39 43 42 41 36 33 30
24 23 22 21 16 17 16 15 15 19 20 15 15 11 13 15 17 16 15 14 17 19 20 20 17 17 21 21 22 26 29 31 33 32 30 30 35 31 31 42 45 46 48 46 40
25 23 22 20 17 15 16 15 17 20 21 18 17 17 15 15 16 19 23 21 26 26 25 25 20 26 25 23 24 27 31 29 33 33 34 29 30 26 26 31 39 52 57 55 50
25 24 22 20 17 16 16 17 20 26 21 19 20 21 21 18 19 17 21 23 23 26 25 25 15 22 22 29 30 32 31 32 32 35 34 34 29 28 21 23 30 34 43 46 45
23 23 21 21 20 19 20 21 24 25 23 24 23 24 23 24 21 21 25 26 25 29 29 29 25 19 19 25 29 33 35 35 37 37 40 40 34 28 27 18 23 23 28 34 35
22 22 22 22 23 22 22 22 24 27 28 26 26 25 23 23 25 25 30 29 30 31 35 38 38 33 28 27 27 27 30 38 43 43 44 45 43 31 27 28 26 29 31 33 26
21 21 21 23 22 20 19 22 24 27 28 28 27 25 24 24 26 26 30 30 31 32 35 39 44 46 41 32 31 36 37 35 39 50 54 51 47 41 37 34 33 34 36 39 38
19 20 20 23 22 21 22 26 27 30 32 33 31 30 30 29 30 30 30 32 33 34 35 38 45 51 52 47 41 43 45 48 50 49 44 50 50 51 50 41 35 37 42 42 42
23 23 23 24 24 24 25 28 29 33 35 35 34 32 33 34 33 31 31 32 36 37 40 43 47 48 51 53 56 56 51 52 53 52 56 52 50 50 52 50 44 39 40 42 50
27 27 29 30 30 29 30 30 33 36 38 37 37 37 37 38 39 38 38 39 39 41 43 45 49 51 54 54 58 61 59 55 51 52 55 57 56 53 51 51 48 43 42 39 42
34 33 33 32 34 36 35 35 36 39 42 42 41 43 43 44 47 49 47 44 43 42 43 48 48 51 60 56 57 64 61 58 59 59 59 61 61 61 59 54 52 50 48 46 45
Wind_Direction
285 287 281 278 279 275 270 259 251 255 244 241 257 270 249 246 253 253 224 217 220 212 212 221 212 195 193 183 180 205 187 140 166 125 72 31 39 53 23 10 6 0 342 320 319
287 281 269 261 289 303 263 229 238 254 248 235 240 253 245 241 245 256 251 211 214 219 217 221 222 206 203 191 169 200 239 234 206 146 97 56 19 14 5 356 6 347 331 314 315
283 271 271 269 281 301 226 205 233 240 247 244 243 239 234 236 237 239 233 218 215 222 224 222 219 218 210 204 186 175 195 227 219 250 261 285 348 360 349 342 8 351 333 317 319
280 269 264 269 275 276 233 212 229 245 255 265 245 243 236 227 230 235 239 221 220 214 225 221 222 219 219 211 199 184 201 225 263 257 255 286 311 338 339 348 357 354 357 331 327
276 277 277 279 280 268 242 217 236 251 252 258 252 244 244 238 233 238 239 236 225 221 221 219 221 220 220 218 203 195 217 221 245 270 281 283 309 327 327 338 341 357 1 360 356
279 280 285 289 284 268 241 218 230 240 239 234 242 244 243 249 241 241 240 237 236 230 224 220 226 232 236 230 216 203 213 225 250 267 283 290 302 311 317 327 342 0 356 355 10
277 281 284 282 283 269 236 223 227 231 232 217 223 269 258 256 247 248 248 243 245 242 239 240 234 232 242 241 235 209 209 221 236 258 270 286 295 303 299 306 324 338 344 353 353
275 278 274 276 276 271 245 232 234 239 240 238 242 257 262 251 243 245 250 250 252 253 255 256 240 234 237 243 243 233 217 221 234 252 266 279 291 289 297 297 309 341 335 343 311
270 272 275 281 279 273 258 246 240 238 241 248 253 250 257 258 259 267 262 262 255 256 256 258 246 231 227 236 241 239 239 228 225 249 264 264 273 278 285 283 305 342 347 326 280
268 266 270 276 283 294 291 258 247 245 245 245 248 251 249 253 259 249 262 255 259 257 255 249 249 242 235 228 229 239 240 242 235 236 245 250 256 254 266 289 303 296 303 318 305
262 265 273 276 284 291 294 303 272 264 244 248 248 244 244 248 247 253 251 257 254 260 255 253 249 242 235 234 230 232 237 232 228 228 228 231 236 245 261 269 277 290 303 301 308
256 264 272 278 277 282 280 283 283 281 272 250 247 247 246 246 244 246 247 246 252 245 250 257 249 246 242 234 233 233 236 225 211 211 232 230 238 242 254 264 265 281 278 290 294
253 263 272 274 276 272 280 288 285 280 282 273 258 255 244 238 237 239 244 245 247 252 246 242 247 247 247 240 234 229 233 229 225 223 229 236 240 250 248 257 258 269 285 284 291
258 263 269 272 271 274 282 288 273 273 276 261 260 252 250 245 244 242 238 243 242 247 245 244 245 246 245 245 243 239 231 233 237 233 227 235 246 252 278 264 256 267 277 299 271
259 262 261 275 278 274 269 264 254 270 265 251 243 248 249 241 239 239 239 242 243 247 245 244 248 249 251 252 255 253 238 237 238 240 242 236 251 257 250 261 271 273 268 257 250
257 257 271 275 276 267 259 260 261 263 261 257 251 249 235 231 236 239 240 239 241 242 234 243 249 254 264 261 261 259 252 248 247 249 257 259 253 257 254 253 259 249 254 253 255
259 263 272 272 265 262 258 256 253 252 261 264 258 252 248 232 230 231 232 238 240 242 240 236 245 249 245 250 259 261 258 249 246 251 260 266 263 263 261 249 254 258 258 255 256
260 267 267 265 261 259 256 254 250 249 258 265 272 261 249 265 252 241 244 251 245 241 239 240 242 248 253 252 242 246 247 257 268 266 258 257 270 275 268 253 249 256 262 264 261
264 263 261 259 262 253 253 251 249 251 257 261 265 267 261 242 249 249 247 246 255 256 259 259 257 252 250 250 252 246 254 265 269 272 273 273 273 277 278 269 258 253 260 266 264
261 262 262 262 259 251 251 252 250 254 264 267 263 268 273 273 266 262 264 257 260 266 269 271 259 244 249 253 255 259 260 261 264 272 272 276 276 281 275 262 267 266 260 264 268
263 264 264 259 253 252 255 253 257 261 263 267 269 271 274 279 278 269 267 271 272 276 277 279 277 262 251 248 258 264 267 267 271 272 278 282 279 283 287 276 258 261 261 267 265
263 262 264 262 257 257 259 258 259 260 262 261 260 262 264 265 267 269 267 271 270 272 271 276 281 281 273 271 272 269 269 264 263 270 271 275 279 279 277 277 261 247 243 246 248
267 267 266 266 266 263 262 261 259 261 263 263 265 263 261 258 260 258 265 271 273 271 268 272 271 276 279 278 277 275 276 272 261 263 269 275 279 279 278 273 271 254 249 253 249
263 267 267 263 264 262 259 257 260 261 262 262 263 266 268 265 262 264 264 265 266 267 267 266 265 266 270 271 268 267 271 274 278 277 272 268 276 276 275 273 266 263 249 246 247
263 267 267 268 269 269 264 263 264 266 266 269 272 274 275 275 270 267 265 264 264 260 261 262 262 263 264 266 265 266 264 264 269 273 275 275 269 267 268 268 265 259 256 254 252
265 268 267 271 273 273 271 270 269 268 270 270 271 273 275 273 271 267 263 264 266 268 268 266 270 273 274 270 270 269 264 263 261 260 261 265 267 266 264 262 260 254 256 254 254
263 267 270 274 277 277 278 279 275 270 268 267 265 267 266 265 265 267 269 269 267 264 261 264 269 273 275 276 268 266 271 271 267 264 262 261 262 264 266 263 260 256 254 253 253
Height
5898 5897 5897 5898 5898 5897 5897 5898 5899 5899 5899 5900 5901 5900 5900 5898 5898 5898 5898 5899 5899 5900 5901 5902 5905 5907 5908 5910 5911 5911 5913 5915 5916 5916 5916 5916 5916 5915 5914 5913 5912 5913 5914 5912 5909
5895 5895 5895 5896 5895 5894 5894 5895 5897 5897 5897 5898 5898 5898 5898 5898 5897 5897 5898 5898 5898 5899 5899 5901 5904 5907 5907 5909 5912 5912 5911 5913 5916 5914 5915 5915 5916 5917 5915 5914 5912 5914 5915 5913 5911
5893 5892 5893 5893 5893 5893 5892 5893 5895 5895 5896 5896 5896 5896 5896 5896 5897 5896 5896 5897 5897 5898 5898 5900 5902 5906 5907 5909 5911 5912 5912 5912 5913 5913 5913 5914 5914 5915 5915 5915 5915 5916 5914 5913 5911
5891 5891 5890 5890 5891 5891 5891 5891 5893 5894 5894 5894 5894 5894 5894 5895 5896 5895 5895 5895 5896 5896 5897 5899 5901 5903 5905 5907 5907 5909 5909 5908 5909 5910 5911 5911 5912 5913 5913 5915 5915 5916 5914 5912 5910
5888 5887 5887 5888 5888 5888 5888 5890 5891 5892 5893 5893 5893 5892 5893 5894 5894 5893 5894 5894 5894 5895 5896 5898 5898 5897 5898 5901 5905 5908 5905 5909 5909 5908 5907 5908 5909 5910 5910 5910 5913 5914 5913 5912 5910
5884 5883 5884 5885 5884 5884 5886 5887 5889 5891 5891 5891 5891 5891 5891 5893 5892 5892 5892 5892 5892 5893 5894 5894 5892 5896 5898 5900 5904 5906 5907 5908 5909 5908 5906 5904 5905 5907 5908 5910 5912 5912 5913 5912 5911
5881 5880 5881 5882 5882 5882 5883 5885 5887 5888 5889 5889 5890 5889 5890 5891 5891 5891 5891 5891 5891 5892 5890 5891 5894 5896 5898 5899 5901 5905 5906 5905 5907 5907 5905 5902 5901 5906 5906 5909 5911 5909 5911 5912 5912
5878 5878 5879 5879 5879 5880 5880 5882 5883 5885 5886 5887 5888 5888 5889 5888 5889 5889 5889 5888 5889 5889 5889 5890 5893 5895 5897 5897 5899 5902 5904 5904 5905 5907 5905 5903 5902 5903 5904 5906 5908 5909 5909 5910 5912
5876 5876 5876 5876 5876 5877 5878 5879 5880 5881 5883 5884 5885 5885 5887 5886 5887 5888 5888 5887 5887 5887 5887 5889 5890 5892 5894 5895 5897 5898 5900 5902 5905 5904 5902 5901 5900 5901 5903 5905 5906 5908 5909 5910 5908
5873 5873 5874 5874 5874 5875 5875 5875 5875 5877 5879 5879 5880 5883 5884 5884 5883 5884 5886 5885 5885 5885 5886 5886 5887 5888 5889 5891 5893 5894 5895 5898 5901 5902 5897 5896 5897 5898 5900 5902 5905 5907 5907 5908 5909
5871 5871 5871 5871 5871 5873 5873 5873 5875 5875 5874 5874 5875 5876 5877 5879 5879 5879 5880 5882 5883 5883 5882 5883 5885 5885 5885 5887 5887 5888 5890 5893 5896 5896 5893 5893 5892 5894 5897 5899 5901 5903 5903 5904 5906
5868 5868 5868 5869 5869 5869 5870 5870 5871 5871 5871 5870 5871 5871 5873 5874 5874 5875 5876 5877 5879 5879 5879 5881 5880 5879 5881 5882 5883 5884 5885 5888 5890 5891 5887 5889 5887 5889 5890 5894 5895 5898 5898 5899 5900
5865 5865 5865 5866 5866 5867 5867 5868 5867 5868 5868 5867 5867 5868 5869 5869 5869 5870 5872 5873 5874 5875 5876 5877 5875 5875 5876 5877 5878 5878 5880 5882 5883 5883 5882 5883 5884 5882 5886 5889 5888 5891 5892 5893 5894
5862 5862 5862 5862 5864 5863 5863 5864 5863 5863 5864 5865 5864 5864 5864 5865 5866 5867 5868 5870 5870 5871 5872 5873 5871 5871 5872 5873 5872 5874 5875 5876 5877 5878 5878 5879 5880 5882 5877 5882 5883 5887 5886 5886 5887
5858 5858 5859 5858 5859 5860 5861 5860 5860 5860 5861 5862 5860 5859 5861 5864 5864 5863 5863 5865 5866 5868 5870 5868 5867 5867 5869 5870 5868 5872 5869 5870 5871 5871 5871 5876 5876 5877 5879 5878 5878 5879 5881 5881 5882
5854 5854 5853 5855 5855 5856 5856 5856 5857 5858 5856 5856 5858 5857 5858 5859 5860 5860 5861 5861 5862 5862 5864 5863 5863 5864 5867 5867 5866 5868 5867 5867 5867 5867 5865 5869 5868 5870 5873 5875 5875 5876 5873 5871 5871
5848 5849 5848 5849 5851 5851 5851 5851 5852 5852 5853 5853 5855 5856 5854 5854 5855 5857 5859 5859 5860 5860 5860 5861 5860 5862 5862 5863 5864 5863 5864 5862 5861 5862 5861 5862 5860 5861 5864 5868 5868 5867 5868 5868 5867
5843 5844 5844 5844 5846 5846 5847 5847 5847 5847 5847 5849 5850 5851 5851 5853 5854 5855 5857 5858 5855 5854 5855 5856 5858 5859 5858 5860 5860 5858 5859 5858 5856 5856 5858 5856 5853 5856 5857 5858 5860 5859 5858 5860 5861
5837 5838 5838 5840 5841 5841 5843 5843 5842 5841 5843 5845 5846 5846 5847 5848 5850 5850 5851 5851 5848 5850 5852 5852 5856 5852 5853 5853 5854 5855 5854 5855 5850 5850 5848 5851 5850 5850 5850 5849 5850 5851 5850 5850 5852
5830 5831 5833 5835 5836 5837 5838 5838 5837 5835 5839 5840 5841 5841 5841 5843 5846 5847 5845 5845 5846 5845 5846 5846 5850 5850 5851 5848 5848 5846 5849 5848 5846 5841 5840 5841 5841 5842 5843 5843 5842 5841 5840 5841 5841
5824 5825 5828 5829 5831 5832 5833 5833 5832 5832 5833 5834 5837 5837 5838 5838 5840 5841 5840 5840 5840 5838 5838 5838 5841 5845 5846 5845 5844 5842 5840 5840 5838 5836 5832 5830 5834 5838 5837 5837 5834 5835 5834 5833 5833
5819 5821 5821 5823 5825 5826 5827 5827 5827 5825 5826 5828 5829 5831 5833 5835 5834 5835 5832 5833 5834 5834 5832 5829 5827 5830 5835 5837 5837 5836 5835 5833 5829 5828 5825 5823 5823 5830 5830 5828 5827 5825 5823 5821 5821
5812 5814 5816 5816 5817 5820 5820 5820 5819 5818 5819 5821 5822 5825 5826 5828 5828 5828 5827 5829 5827 5828 5827 5824 5820 5817 5821 5829 5828 5825 5825 5824 5822 5819 5817 5814 5814 5819 5820 5819 5818 5817 5817 5816 5814
5807 5809 5810 5809 5810 5811 5812 5812 5812 5811 5811 5813 5815 5816 5817 5819 5820 5820 5820 5819 5819 5818 5817 5815 5812 5810 5808 5812 5816 5815 5814 5811 5810 5807 5808 5805 5805 5808 5808 5809 5810 5809 5808 5808 5808
5801 5802 5802 5802 5803 5803 5804 5804 5804 5803 5803 5805 5806 5807 5807 5807 5809 5810 5811 5810 5807 5807 5805 5803 5799 5797 5796 5796 5797 5797 5800 5802 5801 5800 5792 5793 5792 5793 5793 5796 5798 5798 5798 5799 5799
5793 5794 5794 5793 5794 5795 5794 5796 5796 5796 5795 5796 5796 5797 5797 5796 5795 5796 5798 5799 5799 5797 5795 5792 5788 5786 5784 5786 5782 5777 5779 5784 5789 5786 5781 5778 5777 5778 5779 5781 5783 5784 5785 5786 5786
5784 5785 5784 5785 5783 5783 5784 5785 5786 5785 5784 5785 5786 5782 5782 5781 5780 5780 5782 5785 5785 5786 5785 5779 5779 5775 5766 5771 5771 5763 5768 5769 5768 5768 5769 5767 5766 5764 5764 5766 5768 5771 5771 5772 5774